カタログに戻る

STARLINK-33777

運用中通信VLEO
NORAD 63843·PAYLOAD·🇺🇸 United States

打ち上げ May 7, 2025 から Cape Canaveral Space Force Station

Loading…

次のパス (今後24時間)

TLE

最新Source: CelesTrak SupGP

元期: Sep 15, 2026, 03:30 UTC

1 63843C 25093H   26258.14631944 -.00016647  00000+0 -60289-3 0  2589
2 63843  43.0016  87.6884 0001472 267.9630 326.0959 15.27591150    19

AllMySatでSTARLINK-33777をリアルタイム追跡

Download on the App Store